sat.trackr.live / text

‹ back to catalog

STARLINK-36956

NORAD 68009 · 2026-039Z

PAYLOAD ACTIVE UNKNOWN

§ Identity

Operator
Country
US
Launch date
2026-02-27
Launch site
AFETR
Launch vehicle
Mass (kg)
RCS (m²)

Purposes: comms

External: N2YO · Heavens-Above · Gunter

§ Orbital elements

Epoch: 2026-05-24T22:17:19.110624Z

Period
94.27 min
Inclination
43.0086°
Eccentricity
0.0003335
Mean motion
15.27603152 rev/d
Perigee alt
480.7 km
Apogee alt
485.3 km
Semi-major
6,861.1 km
B*
5.4331e-4
RAAN
338.3246°
Arg perigee
251.4921°
Mean anomaly
108.5569°
Rev number
1,336

§ Raw data

STARLINK-369561 68009U 26039Z   26144.92869341  .00014730  00000+0  54331-3 0  99952 68009  43.0086 338.3246 0003335 251.4921 108.5569 15.27603152 13362

JSON: /api/v1/satellites/68009 · /tle

For live sub-satellite position, see the globe view (requires WebGL).

§ Visibility from observer

Set your observer location to see the next 7 days of passes ≥ 10°. The values pass through the URL so the page stays shareable.

No JS? Fill the form by hand. The geolocation button needs JavaScript.